Timestamp, Local Timestamp, ID, PM25, PM10, Co2, Temperature, Relative Humidity, Monitor ID, O3
2020-01-08T18:15:04Z,01/08/20 13:15,4283248,0.15,0.0,644,-2.0,29.5,67,35.0
2020-01-08T18:16:04Z,01/08/20 13:16,4283253,0.11000000000000001,0.001,638,-2.1,29.7,67,35.0
2020-01-08T18:17:04Z,01/08/20 13:17,4283256,0.13799999999999998,0.003,643,-2.1,30.0,67,36.0
2020-01-08T18:18:04Z,01/08/20 13:18,4283261,0.063,0.0,643,-2.2,30.2,67,35.0
2020-01-08T18:19:04Z,01/08/20 13:19,4283266,0.09,0.0,633,-2.3,30.3,67,35.0
2020-01-08T18:20:04Z,01/08/20 13:20,4283271,0.072,0.0,645,-2.3,30.6,67,35.0
2020-01-08T18:21:04Z,01/08/20 13:21,4283276,0.11000000000000001,0.001,643,-2.3,30.7,67,36.0
2020-01-08T18:22:04Z,01/08/20 13:22,4283281,0.066,0.0,638,-2.4,30.9,67,36.0
2020-01-08T18:23:18Z,01/08/20 13:23,4283287,0.144,0.0,643,-2.4,31.0,67,36.0
2020-01-08T18:24:19Z,01/08/20 13:24,4283292,0.12,0.0,638,-2.5,31.2,67,36.0
2020-01-08T18:25:18Z,01/08/20 13:25,4283297,0.147,0.0,640,-2.5,31.2,67,36.0
2020-01-08T18:26:18Z,01/08/20 13:26,4283300,0.048,0.0,633,-2.5,31.3,67,36.0
2020-01-08T18:27:18Z,01/08/20 13:27,4283305,0.142,0.002,638,-2.5,31.4,67,36.0
2020-01-08T18:28:34Z,01/08/20 13:28,4283311,0.134,0.001,642,-2.6,31.6,67,36.0
2020-01-08T18:29:34Z,01/08/20 13:29,4283316,0.135,0.0,635,-2.6,31.6,67,36.0
2020-01-08T18:30:51Z,01/08/20 13:30,4283321,0.192,0.0,639,-2.6,31.7,67,36.0
2020-01-08T18:31:51Z,01/08/20 13:31,4283326,0.10700000000000001,0.001,632,-2.6,31.8,67,36.0
2020-01-08T18:32:51Z,01/08/20 13:32,4283331,0.10200000000000001,0.0,637,-2.6,31.9,67,36.0
2020-01-08T18:34:07Z,01/08/20 13:34,4283336,0.088,0.002,632,-2.6,32.0,67,36.0
2020-01-08T18:35:07Z,01/08/20 13:35,4283341,0.157,0.002,637,-2.5,32.1,67,36.0
2020-01-08T18:36:07Z,01/08/20 13:36,4283346,0.11100000000000002,0.0,632,-2.6,32.2,67,35.0
2020-01-08T18:37:07Z,01/08/20 13:37,4283351,0.122,0.001,642,-2.5,32.3,67,34.0
2020-01-08T18:38:07Z,01/08/20 13:38,4283356,0.092,0.001,628,-2.5,32.4,67,35.0
2020-01-08T18:39:07Z,01/08/20 13:39,4283360,0.119,0.001,633,-2.5,32.4,67,35.0
2020-01-08T18:40:07Z,01/08/20 13:40,4283365,0.11100000000000002,0.0,635,-2.5,32.6,67,35.0
2020-01-08T18:41:24Z,01/08/20 13:41,4283371,0.099,0.0,642,-2.5,32.7,67,35.0
2020-01-08T18:42:24Z,01/08/20 13:42,4283376,0.081,0.0,637,-2.5,32.8,67,35.0
2020-01-08T18:43:24Z,01/08/20 13:43,4283381,0.089,0.001,632,-2.5,32.7,67,36.0
2020-01-08T18:44:40Z,01/08/20 13:44,4283387,0.077,0.001,635,-2.5,32.8,67,36.0
2020-01-08T18:45:40Z,01/08/20 13:45,4283392,0.08,0.001,635,-2.6,32.8,67,36.0
2020-01-08T18:46:40Z,01/08/20 13:46,4283396,0.125,0.001,644,-2.6,32.9,67,35.0
2020-01-08T18:47:40Z,01/08/20 13:47,4283402,0.16499999999999998,0.0,630,-2.6,33.0,67,35.0
2020-01-08T18:48:40Z,01/08/20 13:48,4283407,0.172,0.002,630,-2.6,33.1,67,36.0
2020-01-08T18:49:56Z,01/08/20 13:49,4283411,0.121,0.002,637,-2.6,33.1,67,36.0
2020-01-08T18:50:56Z,01/08/20 13:50,4283416,0.159,0.003,642,-2.6,33.3,67,35.0
2020-01-08T18:51:56Z,01/08/20 13:51,4283421,0.181,0.002,637,-2.6,33.3,67,36.0
2020-01-08T18:53:11Z,01/08/20 13:53,4283426,0.13899999999999998,0.002,632,-2.6,33.4,67,36.0
2020-01-08T18:54:11Z,01/08/20 13:54,4283431,0.129,0.0,642,-2.6,33.5,67,36.0
2020-01-08T18:55:26Z,01/08/20 13:55,4283437,0.122,0.001,635,-2.6,33.7,67,0.0
2020-01-08T18:56:26Z,01/08/20 13:56,4283442,0.10300000000000001,0.002,637,-2.6,33.7,67,35.0
2020-01-08T18:57:26Z,01/08/20 13:57,4283446,0.158,0.001,635,-2.6,33.7,67,36.0
2020-01-08T18:58:42Z,01/08/20 13:58,4283453,0.11599999999999999,0.001,635,-2.6,33.8,67,36.0
2020-01-08T18:59:42Z,01/08/20 13:59,4283457,0.095,0.001,632,-2.5,33.8,67,36.0
2020-01-08T19:00:42Z,01/08/20 14:00,4283462,0.211,0.002,639,-2.5,33.9,67,36.0
2020-01-08T19:01:42Z,01/08/20 14:01,4283467,0.185,0.001,644,-2.6,33.9,67,35.0
2020-01-08T19:02:42Z,01/08/20 14:02,4283472,0.162,0.0,642,-2.5,33.9,67,36.0
2020-01-08T19:03:58Z,01/08/20 14:03,4283477,0.10400000000000001,0.001,642,-2.5,34.0,67,36.0
2020-01-08T19:04:58Z,01/08/20 14:04,4283482,0.092,0.001,646,-2.5,34.0,67,36.0
2020-01-08T19:05:58Z,01/08/20 14:05,4283487,0.153,0.0,637,-2.5,34.0,67,37.0
2020-01-08T19:07:14Z,01/08/20 14:07,4283492,0.096,0.0,632,-2.5,34.1,67,36.0
2020-01-08T19:08:14Z,01/08/20 14:08,4283497,0.099,0.0,635,-2.5,34.2,67,35.0
2020-01-08T19:09:30Z,01/08/20 14:09,4283502,0.142,0.002,639,-2.5,34.4,67,35.0
2020-01-08T19:10:30Z,01/08/20 14:10,4283507,0.16999999999999998,0.001,644,-2.5,34.4,67,35.0
2020-01-08T19:11:47Z,01/08/20 14:11,4283514,0.066,0.0,642,-2.5,34.6,67,36.0
2020-01-08T19:12:47Z,01/08/20 14:12,4283519,0.10500000000000001,0.0,632,-2.5,34.6,67,36.0
2020-01-08T19:14:02Z,01/08/20 14:14,4283524,0.099,0.0,639,-2.6,34.7,67,36.0
2020-01-08T19:15:02Z,01/08/20 14:15,4283529,0.10200000000000001,0.0,632,-2.6,34.7,67,36.0
2020-01-08T19:16:19Z,01/08/20 14:16,4283534,0.10200000000000001,0.0,639,-2.6,34.9,67,36.0
2020-01-08T19:17:19Z,01/08/20 14:17,4283539,0.123,0.0,632,-2.6,35.1,67,36.0
2020-01-08T19:18:35Z,01/08/20 14:18,4283545,0.128,0.001,632,-2.6,35.1,67,0.0
2020-01-08T19:19:35Z,01/08/20 14:19,4283550,0.151,0.002,635,-2.6,35.1,67,36.0
2020-01-08T19:20:35Z,01/08/20 14:20,4283555,0.066,0.0,635,-2.6,35.2,67,36.0
2020-01-08T19:21:35Z,01/08/20 14:21,4283560,0.10700000000000001,0.001,642,-2.6,35.2,67,36.0
2020-01-08T19:22:35Z,01/08/20 14:22,4283565,0.093,0.0,637,-2.6,35.2,67,37.0
2020-01-08T19:23:35Z,01/08/20 14:23,4283570,0.128,0.001,630,-2.5,35.2,67,36.0
2020-01-08T19:24:50Z,01/08/20 14:24,4283575,0.08,0.001,635,-2.5,35.2,67,36.0
2020-01-08T19:25:50Z,01/08/20 14:25,4283580,0.11299999999999999,0.001,647,-2.5,35.3,67,36.0
2020-01-08T19:26:50Z,01/08/20 14:26,4283585,0.099,0.0,661,-2.5,35.4,67,35.0
2020-01-08T19:27:50Z,01/08/20 14:27,4283590,0.17099999999999999,0.0,668,-2.4,35.4,67,35.0
2020-01-08T19:28:50Z,01/08/20 14:28,4283595,0.11200000000000002,0.002,658,-2.4,35.5,67,34.0
2020-01-08T19:30:05Z,01/08/20 14:30,4283600,0.122,0.001,654,-2.3,35.5,67,31.0
2020-01-08T19:31:05Z,01/08/20 14:31,4283605,0.191,0.001,654,-2.3,35.6,67,35.0
2020-01-08T19:32:05Z,01/08/20 14:32,4283609,0.11100000000000002,0.0,658,-2.3,35.6,67,35.0
2020-01-08T19:33:05Z,01/08/20 14:33,4283614,0.132,0.0,658,-2.3,35.6,67,34.0
2020-01-08T19:34:05Z,01/08/20 14:34,4283619,0.072,0.0,656,-2.3,35.6,67,35.0
2020-01-08T19:35:05Z,01/08/20 14:35,4283624,0.066,0.0,654,-2.3,35.7,67,34.0
2020-01-08T19:36:20Z,01/08/20 14:36,4283629,0.174,0.0,658,-2.3,35.7,67,32.0
2020-01-08T19:37:20Z,01/08/20 14:37,4283636,0.16799999999999998,0.0,658,-2.3,35.6,67,35.0
2020-01-08T19:38:20Z,01/08/20 14:38,4283639,0.186,0.0,654,-2.3,35.5,67,34.0
2020-01-08T19:39:36Z,01/08/20 14:39,4283645,0.16899999999999998,0.002,652,-2.3,35.5,67,0.0
2020-01-08T19:40:36Z,01/08/20 14:40,4283650,0.16599999999999998,0.002,652,-2.3,35.5,67,33.0
2020-01-08T19:41:52Z,01/08/20 14:41,4283655,0.20099999999999998,0.0,656,-2.4,35.6,67,32.0
2020-01-08T19:42:52Z,01/08/20 14:42,4283660,0.125,0.001,652,-2.4,35.6,67,34.0
2020-01-08T19:43:52Z,01/08/20 14:43,4283665,0.144,0.0,645,-2.4,35.6,67,34.0
2020-01-08T19:44:52Z,01/08/20 14:44,4283670,0.23399999999999999,0.006,643,-2.4,35.6,67,35.0
2020-01-08T19:45:52Z,01/08/20 14:45,4283675,0.132,0.0,640,-2.4,35.7,67,35.0
2020-01-08T19:46:52Z,01/08/20 14:46,4283680,0.155,0.001,645,-2.4,35.8,67,34.0
2020-01-08T19:48:22Z,01/08/20 14:48,4283685,0.188,0.001,638,-2.4,35.8,67,35.0
2020-01-08T19:49:22Z,01/08/20 14:49,4283690,0.15,0.0,638,-2.4,35.8,67,36.0
2020-01-08T19:50:22Z,01/08/20 14:50,4283695,0.125,0.001,643,-2.4,35.8,67,36.0
2020-01-08T19:51:39Z,01/08/20 14:51,4283701,0.144,0.0,638,-2.4,36.0,67,35.0
2020-01-08T19:52:39Z,01/08/20 14:52,4283706,0.177,0.0,638,-2.4,36.0,67,35.0
2020-01-08T19:53:39Z,01/08/20 14:53,4283711,0.177,0.003,640,-2.4,36.0,67,36.0
2020-01-08T19:54:56Z,01/08/20 14:54,4283716,0.157,0.002,635,-2.4,36.0,67,36.0
2020-01-08T19:55:56Z,01/08/20 14:55,4283721,0.154,0.002,633,-2.4,35.9,67,36.0
2020-01-08T19:56:56Z,01/08/20 14:56,4283726,0.21000000000000002,0.003,638,-2.3,36.0,67,33.0
2020-01-08T19:57:56Z,01/08/20 14:57,4283731,0.152,0.001,645,-2.3,36.0,67,35.0
2020-01-08T19:58:56Z,01/08/20 14:58,4283736,0.086,0.001,631,-2.3,35.9,67,36.0
2020-01-08T19:59:56Z,01/08/20 14:59,4283741,0.11399999999999999,0.0,638,-2.3,36.0,67,36.0
2020-01-08T20:00:56Z,01/08/20 15:00,4283745,0.16999999999999998,0.001,645,-2.3,36.0,67,34.0
2020-01-08T20:01:56Z,01/08/20 15:01,4283750,0.122,0.001,643,-2.3,36.0,67,36.0
2020-01-08T20:02:56Z,01/08/20 15:02,4283755,0.1,0.002,636,-2.3,36.0,67,36.0
2020-01-08T20:03:56Z,01/08/20 15:03,4283760,0.133,0.002,643,-2.2,36.0,67,35.0
2020-01-08T20:05:12Z,01/08/20 15:05,4283765,0.156,0.0,636,-2.2,36.0,67,36.0
2020-01-08T20:06:12Z,01/08/20 15:06,4283770,0.092,0.001,645,-2.1,36.0,67,36.0
2020-01-08T20:07:12Z,01/08/20 15:07,4283775,0.183,0.0,645,-2.1,36.0,67,36.0
2020-01-08T20:08:12Z,01/08/20 15:08,4283780,0.161,0.001,640,-2.1,36.0,67,36.0
2020-01-08T20:09:12Z,01/08/20 15:09,4283785,0.149,0.001,640,-2.1,36.0,67,36.0
2020-01-08T20:10:12Z,01/08/20 15:10,4283790,0.183,0.0,636,-2.1,36.1,67,36.0
2020-01-08T20:11:12Z,01/08/20 15:11,4283795,0.162,0.0,633,-2.2,36.2,67,36.0
2020-01-08T20:12:12Z,01/08/20 15:12,4283799,0.149,0.001,640,-2.2,36.2,67,36.0
2020-01-08T20:13:12Z,01/08/20 15:13,4283803,0.154,0.002,638,-2.2,36.2,67,36.0
2020-01-08T20:14:12Z,01/08/20 15:14,4283808,0.10400000000000001,0.004,643,-2.2,36.1,67,36.0
2020-01-08T20:15:12Z,01/08/20 15:15,4283813,0.087,0.0,640,-2.3,36.1,67,35.0
2020-01-08T20:16:12Z,01/08/20 15:16,4283817,0.149,0.001,645,-2.3,36.2,67,35.0
2020-01-08T20:17:12Z,01/08/20 15:17,4283822,0.2,0.001,636,-2.3,36.2,67,34.0
2020-01-08T20:18:12Z,01/08/20 15:18,4283827,0.152,0.001,633,-2.3,36.3,67,35.0
2020-01-08T20:19:12Z,01/08/20 15:19,4283832,0.153,0.0,638,-2.3,36.3,67,35.0
2020-01-08T20:20:29Z,01/08/20 15:20,4283837,0.15,0.0,638,-2.3,36.3,67,36.0
2020-01-08T20:21:28Z,01/08/20 15:21,4283842,0.092,0.001,645,-2.3,36.3,67,35.0
2020-01-08T20:22:28Z,01/08/20 15:22,4283848,0.149,0.001,635,-2.4,36.3,67,36.0
2020-01-08T20:23:28Z,01/08/20 15:23,4283852,0.179,0.001,633,-2.4,36.3,67,36.0
2020-01-08T20:24:28Z,01/08/20 15:24,4283857,0.152,0.001,638,-2.4,36.3,67,36.0
2020-01-08T20:25:28Z,01/08/20 15:25,4283861,0.074,0.001,637,-2.5,36.4,67,35.0
2020-01-08T20:26:28Z,01/08/20 15:26,4283866,0.16599999999999998,0.002,635,-2.5,36.3,67,36.0
2020-01-08T20:27:28Z,01/08/20 15:27,4283871,0.132,0.0,637,-2.5,36.4,67,35.0
2020-01-08T20:28:29Z,01/08/20 15:28,4283876,0.146,0.001,644,-2.5,36.4,67,36.0
2020-01-08T20:29:45Z,01/08/20 15:29,4283882,0.127,0.002,642,-2.6,36.3,67,36.0
2020-01-08T20:30:45Z,01/08/20 15:30,4283887,0.16399999999999998,0.001,635,-2.7,36.4,67,36.0
2020-01-08T20:31:45Z,01/08/20 15:31,4283892,0.143,0.001,642,-2.7,36.4,67,36.0
2020-01-08T20:33:02Z,01/08/20 15:33,4283899,0.267,0.003,635,-2.7,36.4,67,36.0
2020-01-08T20:34:03Z,01/08/20 15:34,4283903,0.153,0.0,637,-2.8,36.5,67,36.0
2020-01-08T20:35:18Z,01/08/20 15:35,4283909,0.1,0.002,637,-2.8,36.5,67,0.0
2020-01-08T20:36:18Z,01/08/20 15:36,4283913,0.189,0.0,634,-2.9,36.6,67,36.0
2020-01-08T20:37:18Z,01/08/20 15:37,4283918,0.10200000000000001,0.003,634,-2.9,36.7,67,36.0
2020-01-08T20:38:18Z,01/08/20 15:38,4283923,0.182,0.001,631,-3.0,36.7,67,36.0
2020-01-08T20:39:18Z,01/08/20 15:39,4283928,0.18,0.0,631,-3.0,36.8,67,36.0
2020-01-08T20:40:33Z,01/08/20 15:40,4283934,0.197,0.001,643,-3.0,37.1,67,0.0
2020-01-08T20:41:33Z,01/08/20 15:41,4283939,0.13999999999999999,0.001,647,-3.0,37.2,67,36.0
2020-01-08T20:42:33Z,01/08/20 15:42,4283943,0.13999999999999999,0.001,636,-3.0,37.2,67,36.0
2020-01-08T20:43:50Z,01/08/20 15:43,4283949,0.21000000000000002,0.003,631,-2.9,37.2,67,36.0
2020-01-08T20:44:50Z,01/08/20 15:44,4283953,0.196,0.002,636,-2.9,37.3,67,35.0
2020-01-08T20:46:06Z,01/08/20 15:46,4283959,0.33199999999999996,0.001,630,-2.8,37.4,67,36.0
2020-01-08T20:47:06Z,01/08/20 15:47,4283964,0.233,0.001,635,-2.8,37.4,67,35.0
2020-01-08T20:48:06Z,01/08/20 15:48,4283969,0.137,0.001,635,-2.7,37.4,67,35.0
2020-01-08T20:49:21Z,01/08/20 15:49,4283974,0.096,0.0,630,-2.7,37.4,67,36.0
2020-01-08T20:50:21Z,01/08/20 15:50,4283979,0.197,0.001,630,-2.7,37.2,67,36.0
2020-01-08T20:51:21Z,01/08/20 15:51,4283984,0.093,0.0,635,-2.7,37.2,67,36.0
2020-01-08T20:52:39Z,01/08/20 15:52,4283990,0.096,0.0,637,-2.7,37.3,67,36.0
2020-01-08T20:53:39Z,01/08/20 15:53,4283995,0.195,0.0,630,-2.7,37.3,67,36.0
2020-01-08T20:54:54Z,01/08/20 15:54,4284001,0.11200000000000002,0.002,632,-2.7,37.3,67,36.0
2020-01-08T20:55:54Z,01/08/20 15:55,4284005,0.16599999999999998,0.002,632,-2.7,37.4,67,36.0
2020-01-08T20:56:55Z,01/08/20 15:56,4284009,0.129,0.0,632,-2.7,37.4,67,36.0
2020-01-08T20:57:54Z,01/08/20 15:57,4284014,0.059,0.001,642,-2.7,37.4,67,36.0
2020-01-08T20:58:54Z,01/08/20 15:58,4284019,0.096,0.0,637,-2.7,37.3,67,37.0
2020-01-08T20:59:55Z,01/08/20 15:59,4284024,0.125,0.001,637,-2.8,37.2,67,37.0
2020-01-08T21:00:54Z,01/08/20 16:00,4284029,0.093,0.0,629,-2.8,37.3,67,36.0
2020-01-08T21:01:54Z,01/08/20 16:01,4284034,0.09,0.0,634,-2.9,37.4,67,36.0
2020-01-08T21:02:54Z,01/08/20 16:02,4284039,0.093,0.0,631,-2.9,37.5,67,36.0
2020-01-08T21:04:10Z,01/08/20 16:04,4284044,0.086,0.001,634,-2.9,37.5,67,36.0
2020-01-08T21:05:10Z,01/08/20 16:05,4284049,0.11000000000000001,0.001,643,-2.9,37.5,67,36.0
2020-01-08T21:06:10Z,01/08/20 16:06,4284054,0.252,0.0,636,-2.9,37.6,67,33.0
2020-01-08T21:07:26Z,01/08/20 16:07,4284058,0.094,0.002,634,-2.9,37.7,67,35.0
2020-01-08T21:08:26Z,01/08/20 16:08,4284063,0.16999999999999998,0.001,638,-2.9,37.7,67,35.0
2020-01-08T21:09:26Z,01/08/20 16:09,4284068,0.141,0.0,638,-2.9,37.7,67,35.0
2020-01-08T21:10:26Z,01/08/20 16:10,4284073,0.141,0.0,629,-3.0,37.8,67,35.0
2020-01-08T21:11:42Z,01/08/20 16:11,4284079,0.16899999999999998,0.002,629,-3.0,37.8,67,34.0
2020-01-08T21:12:42Z,01/08/20 16:12,4284084,0.11100000000000002,0.0,622,-3.0,37.8,67,35.0
2020-01-08T21:13:42Z,01/08/20 16:13,4284089,0.132,0.0,629,-3.0,37.8,67,36.0
2020-01-08T21:14:57Z,01/08/20 16:14,4284094,0.089,0.001,634,-3.0,37.7,67,36.0
2020-01-08T21:15:57Z,01/08/20 16:15,4284098,0.207,0.0,638,-3.0,37.8,67,36.0
2020-01-08T21:16:57Z,01/08/20 16:16,4284103,0.154,0.002,631,-3.0,37.8,67,35.0
2020-01-08T21:18:15Z,01/08/20 16:18,4284108,0.11000000000000001,0.001,638,-3.0,37.8,67,35.0
2020-01-08T21:19:15Z,01/08/20 16:19,4284113,0.153,0.0,638,-3.0,37.8,67,36.0
2020-01-08T21:20:30Z,01/08/20 16:20,4284119,0.162,0.0,631,-3.0,37.8,67,35.0
2020-01-08T21:21:30Z,01/08/20 16:21,4284123,0.153,0.0,631,-3.1,37.9,67,35.0
2020-01-08T21:22:48Z,01/08/20 16:22,4284129,0.089,0.001,629,-3.1,38.0,67,35.0
2020-01-08T21:23:47Z,01/08/20 16:23,4284134,0.13999999999999999,0.001,634,-3.1,38.0,67,35.0
2020-01-08T21:25:04Z,01/08/20 16:25,4284140,0.11000000000000001,0.001,634,-3.1,38.0,67,35.0
2020-01-08T21:26:04Z,01/08/20 16:26,4284144,0.155,0.004,629,-3.1,38.1,67,34.0
2020-01-08T21:27:04Z,01/08/20 16:27,4284149,0.144,0.0,629,-3.1,38.1,67,35.0
2020-01-08T21:28:21Z,01/08/20 16:28,4284155,0.123,0.0,634,-3.1,38.2,67,35.0
2020-01-08T21:29:21Z,01/08/20 16:29,4284160,0.131,0.001,636,-3.1,38.2,67,35.0
2020-01-08T21:30:21Z,01/08/20 16:30,4284165,0.135,0.0,629,-3.2,38.1,67,36.0
2020-01-08T21:31:21Z,01/08/20 16:31,4284168,0.129,0.0,629,-3.2,38.1,67,36.0
2020-01-08T21:32:36Z,01/08/20 16:32,4284176,0.16999999999999998,0.001,636,-3.2,38.2,67,36.0
2020-01-08T21:33:36Z,01/08/20 16:33,4284180,0.161,0.001,633,-3.2,38.1,67,36.0
2020-01-08T21:34:36Z,01/08/20 16:34,4284184,0.18,0.0,630,-3.2,38.1,67,35.0
2020-01-08T21:35:52Z,01/08/20 16:35,4284190,0.144,0.0,626,-3.3,38.1,67,36.0
2020-01-08T21:36:52Z,01/08/20 16:36,4284195,0.174,0.0,626,-3.3,38.1,67,36.0
2020-01-08T21:37:52Z,01/08/20 16:37,4284200,0.11599999999999999,0.001,614,-3.3,38.1,67,36.0
2020-01-08T21:39:07Z,01/08/20 16:39,4284205,0.192,0.0,630,-3.3,38.1,67,36.0
2020-01-08T21:40:07Z,01/08/20 16:40,4284210,0.143,0.001,624,-3.4,38.1,67,36.0
2020-01-08T21:41:07Z,01/08/20 16:41,4284215,0.11299999999999999,0.001,621,-3.4,38.2,67,35.0
2020-01-08T21:43:34Z,01/08/20 16:43,4284226,0.11299999999999999,0.001,619,-3.4,38.2,67,36.0
2020-01-08T21:44:34Z,01/08/20 16:44,4284230,0.137,0.001,630,-3.4,38.2,67,37.0
2020-01-08T21:45:51Z,01/08/20 16:45,4284236,0.095,0.001,624,-3.5,38.4,67,34.0
2020-01-08T21:46:51Z,01/08/20 16:46,4284241,0.118,0.002,618,-3.5,38.5,67,35.0
2020-01-08T21:47:51Z,01/08/20 16:47,4284246,0.20400000000000001,0.0,625,-3.5,38.7,67,34.0
2020-01-08T21:49:08Z,01/08/20 16:49,4284251,0.152,0.001,627,-3.6,38.7,67,34.0
2020-01-08T21:50:08Z,01/08/20 16:50,4284256,0.135,0.0,623,-3.6,38.8,67,35.0
2020-01-08T21:51:08Z,01/08/20 16:51,4284261,0.155,0.001,627,-3.7,38.8,67,34.0
2020-01-08T21:52:08Z,01/08/20 16:52,4284265,0.125,0.001,639,-3.7,38.8,67,36.0
2020-01-08T21:53:08Z,01/08/20 16:53,4284270,0.18,0.0,634,-3.8,38.8,67,35.0
2020-01-08T21:54:08Z,01/08/20 16:54,4284275,0.22000000000000003,0.002,634,-3.8,38.8,67,35.0
2020-01-08T21:55:08Z,01/08/20 16:55,4284279,0.21200000000000002,0.001,634,-3.9,38.8,67,35.0
2020-01-08T21:56:08Z,01/08/20 16:56,4284284,0.13,0.002,633,-3.9,38.9,67,35.0
2020-01-08T21:57:08Z,01/08/20 16:57,4284289,0.11200000000000002,0.002,633,-4.0,38.9,67,35.0
2020-01-08T21:58:08Z,01/08/20 16:58,4284294,0.134,0.001,640,-4.0,39.0,67,35.0
2020-01-08T21:59:08Z,01/08/20 16:59,4284299,0.154,0.002,667,-4.1,39.1,67,35.0
2020-01-08T22:00:08Z,01/08/20 17:00,4284303,0.137,0.001,676,-4.2,39.1,67,35.0
2020-01-08T22:01:24Z,01/08/20 17:01,4284309,0.149,0.001,665,-4.2,39.1,67,35.0
2020-01-08T22:02:24Z,01/08/20 17:02,4284313,0.12,0.0,648,-4.2,39.1,67,35.0
2020-01-08T22:03:41Z,01/08/20 17:03,4284321,0.151,0.002,639,-4.3,39.1,67,34.0
2020-01-08T22:04:41Z,01/08/20 17:04,4284326,0.12,0.0,639,-4.4,39.3,67,35.0
2020-01-08T22:05:41Z,01/08/20 17:05,4284330,0.13999999999999999,0.004,630,-4.4,39.3,67,35.0
2020-01-08T22:06:58Z,01/08/20 17:06,4284336,0.16499999999999998,0.0,655,-4.5,39.3,67,35.0
2020-01-08T22:07:58Z,01/08/20 17:07,4284340,0.159,0.0,648,-4.6,39.4,67,34.0
2020-01-08T22:09:14Z,01/08/20 17:09,4284346,0.20099999999999998,0.003,642,-4.7,39.5,67,34.0
2020-01-08T22:10:14Z,01/08/20 17:10,4284350,0.20800000000000002,0.002,645,-4.7,39.7,67,34.0
2020-01-08T22:11:15Z,01/08/20 17:11,4284355,0.11399999999999999,0.003,651,-4.8,39.7,67,35.0
2020-01-08T22:12:31Z,01/08/20 17:12,4284361,0.147,0.0,640,-4.9,39.8,67,35.0
2020-01-08T22:13:31Z,01/08/20 17:13,4284365,0.124,0.002,640,-4.9,39.8,67,34.0
2020-01-08T22:14:31Z,01/08/20 17:14,4284371,0.149,0.001,631,-4.9,39.9,67,35.0
2020-01-08T22:15:48Z,01/08/20 17:15,4284376,0.20099999999999998,0.003,628,-5.0,40.0,67,34.0
2020-01-08T22:16:48Z,01/08/20 17:16,4284381,0.20400000000000001,0.0,630,-5.1,40.0,67,35.0
2020-01-08T22:18:04Z,01/08/20 17:18,4284388,0.17099999999999999,0.0,628,-5.1,40.1,67,35.0
2020-01-08T22:19:03Z,01/08/20 17:19,4284393,0.2,0.001,628,-5.2,40.2,67,34.0
2020-01-08T22:20:03Z,01/08/20 17:20,4284398,0.449,0.001,625,-5.2,40.2,67,34.0
2020-01-08T22:21:03Z,01/08/20 17:21,4284403,0.152,0.001,628,-5.3,40.3,67,33.0
2020-01-08T22:22:04Z,01/08/20 17:22,4284407,0.182,0.001,624,-5.4,40.4,67,32.0
2020-01-08T22:23:21Z,01/08/20 17:23,4284413,0.22400000000000003,0.001,629,-5.4,40.6,67,33.0
2020-01-08T22:24:21Z,01/08/20 17:24,4284418,0.21600000000000003,0.0,636,-5.5,40.6,67,33.0
2020-01-08T22:25:38Z,01/08/20 17:25,4284424,0.20400000000000001,0.003,627,-5.5,40.7,67,0.0
2020-01-08T22:26:38Z,01/08/20 17:26,4284429,0.172,0.002,620,-5.6,40.8,67,33.0
2020-01-08T22:27:54Z,01/08/20 17:27,4284434,0.15,0.003,622,-5.7,40.9,67,31.0
2020-01-08T22:28:54Z,01/08/20 17:28,4284439,0.172,0.002,622,-5.7,40.9,67,32.0
2020-01-08T22:29:54Z,01/08/20 17:29,4284444,0.20099999999999998,0.0,626,-5.7,41.1,67,32.0
2020-01-08T22:30:54Z,01/08/20 17:30,4284449,0.16699999999999998,0.001,621,-5.7,41.1,67,32.0
2020-01-08T22:31:54Z,01/08/20 17:31,4284454,0.13999999999999999,0.001,617,-5.8,41.2,67,33.0
2020-01-08T22:33:10Z,01/08/20 17:33,4284459,0.267,0.003,621,-5.8,41.2,67,34.0
2020-01-08T22:34:10Z,01/08/20 17:34,4284464,0.22999999999999998,0.001,626,-5.8,41.4,67,33.0
2020-01-08T22:35:10Z,01/08/20 17:35,4284469,0.231,0.0,619,-5.9,41.5,67,33.0
2020-01-08T22:36:10Z,01/08/20 17:36,4284474,0.341,0.001,623,-5.9,41.6,67,33.0
2020-01-08T22:37:10Z,01/08/20 17:37,4284479,0.20299999999999999,0.001,617,-6.0,41.7,67,32.0
2020-01-08T22:38:10Z,01/08/20 17:38,4284482,0.211,0.002,626,-6.0,41.9,67,32.0
2020-01-08T22:39:10Z,01/08/20 17:39,4284486,0.33199999999999996,0.001,617,-6.0,41.9,67,32.0
2020-01-08T22:40:10Z,01/08/20 17:40,4284491,0.268,0.002,621,-6.1,41.9,67,33.0
2020-01-08T22:41:10Z,01/08/20 17:41,4284496,0.383,0.001,621,-6.1,42.0,67,32.0
2020-01-08T22:42:10Z,01/08/20 17:42,4284501,0.396,0.006,623,-6.1,42.1,67,32.0
2020-01-08T22:43:10Z,01/08/20 17:43,4284506,0.33199999999999996,0.001,630,-6.2,42.1,67,32.0
2020-01-08T22:44:10Z,01/08/20 17:44,4284511,0.248,0.001,632,-6.2,42.2,67,31.0
2020-01-08T22:45:26Z,01/08/20 17:45,4284516,0.146,0.001,619,-6.2,42.3,67,32.0
2020-01-08T22:46:26Z,01/08/20 17:46,4284521,0.33399999999999996,0.002,632,-6.3,42.4,67,32.0
2020-01-08T22:47:26Z,01/08/20 17:47,4284526,0.267,0.003,625,-6.3,42.4,67,32.0
2020-01-08T22:48:42Z,01/08/20 17:48,4284534,0.33999999999999997,0.002,622,-6.4,42.5,67,30.0
2020-01-08T22:49:42Z,01/08/20 17:49,4284538,0.301,0.002,627,-6.4,42.6,67,31.0
2020-01-08T22:50:59Z,01/08/20 17:50,4284543,0.27,0.003,636,-6.4,42.7,67,30.0
2020-01-08T22:51:59Z,01/08/20 17:51,4284548,0.258,0.003,636,-6.4,42.9,67,30.0
2020-01-08T22:52:59Z,01/08/20 17:52,4284553,0.21600000000000003,0.0,634,-6.5,42.9,67,30.0
2020-01-08T22:53:59Z,01/08/20 17:53,4284557,0.329,0.004,634,-6.5,43.0,67,31.0
2020-01-08T22:55:15Z,01/08/20 17:55,4284563,0.36,0.003,634,-6.5,43.1,67,30.0
2020-01-08T22:56:15Z,01/08/20 17:56,4284568,0.318,0.003,632,-6.5,43.2,67,29.0
2020-01-08T22:57:32Z,01/08/20 17:57,4284573,0.29,0.001,627,-6.5,43.3,67,28.0
2020-01-08T22:58:32Z,01/08/20 17:58,4284579,0.513,0.0,636,-6.5,43.5,67,29.0
2020-01-08T22:59:32Z,01/08/20 17:59,4284583,0.371,0.001,636,-6.5,43.6,67,29.0
2020-01-08T23:00:47Z,01/08/20 18:00,4284590,0.403,0.002,631,-6.6,43.7,67,28.0
2020-01-08T23:01:47Z,01/08/20 18:01,4284595,0.485,0.001,627,-6.6,43.7,67,30.0
2020-01-08T23:02:47Z,01/08/20 18:02,4284599,0.476,0.001,629,-6.6,43.8,67,28.0
2020-01-08T23:04:03Z,01/08/20 18:04,4284605,0.371,0.001,633,-6.6,44.0,67,28.0
2020-01-08T23:05:03Z,01/08/20 18:05,4284609,0.395,0.004,638,-6.7,44.1,67,28.0
2020-01-08T23:06:19Z,01/08/20 18:06,4284615,0.461,0.001,636,-6.7,44.2,67,28.0
2020-01-08T23:07:19Z,01/08/20 18:07,4284620,0.391,0.002,633,-6.7,44.2,67,28.0
2020-01-08T23:08:35Z,01/08/20 18:08,4284626,0.393,0.0,631,-6.7,44.4,67,27.0
2020-01-08T23:09:35Z,01/08/20 18:09,4284631,0.178,0.002,626,-6.8,44.6,67,27.0
2020-01-08T23:10:50Z,01/08/20 18:10,4284636,0.27,0.003,626,-6.8,44.6,67,0.0
2020-01-08T23:11:50Z,01/08/20 18:11,4284641,0.153,0.0,631,-6.8,44.7,67,28.0
2020-01-08T23:12:51Z,01/08/20 18:12,4284646,0.199,0.002,631,-6.8,44.7,67,29.0
2020-01-08T23:13:50Z,01/08/20 18:13,4284651,0.149,0.001,631,-6.9,44.8,67,29.0
2020-01-08T23:14:50Z,01/08/20 18:14,4284656,0.27999999999999997,0.002,635,-6.9,44.9,67,28.0
2020-01-08T23:15:50Z,01/08/20 18:15,4284661,0.11399999999999999,0.0,631,-6.9,44.9,67,29.0
2020-01-08T23:17:06Z,01/08/20 18:17,4284666,0.21800000000000003,0.001,633,-6.9,45.1,67,29.0
2020-01-08T23:18:06Z,01/08/20 18:18,4284671,0.21200000000000002,0.001,631,-7.0,45.3,67,28.0
2020-01-08T23:19:21Z,01/08/20 18:19,4284676,0.178,0.005,628,-7.0,45.4,67,28.0
2020-01-08T23:20:21Z,01/08/20 18:20,4284681,0.179,0.001,635,-7.0,45.4,67,28.0
2020-01-08T23:21:21Z,01/08/20 18:21,4284686,0.192,0.0,641,-7.1,45.5,67,28.0
2020-01-08T23:22:21Z,01/08/20 18:22,4284691,0.215,0.001,632,-7.1,45.5,67,28.0
2020-01-08T23:24:49Z,01/08/20 18:24,4284701,0.23700000000000002,0.0,635,-7.2,45.6,67,27.0
2020-01-08T23:25:49Z,01/08/20 18:25,4284706,0.22799999999999998,0.003,632,-7.2,45.8,67,27.0
2020-01-08T23:27:05Z,01/08/20 18:27,4284712,0.151,0.002,635,-7.2,45.8,67,28.0
2020-01-08T23:28:05Z,01/08/20 18:28,4284716,0.296,0.001,637,-7.2,45.8,67,28.0